| time (UTC) | temp C | wind direction | speed KPH | gust KPH | rain 1hr cm | rain 24hr cm | rain mn cm | humidity % | barometer mb |
| 20260504000113 | 17 | 219 | 0.0 | 3.2 | 0.00 | 0.00 | 0.00 | 45 | 1013.8 |
| 20260503234542 | 18 | 219 | 0.0 | 6.4 | 0.00 | 0.00 | 0.00 | 43 | 1013.7 |
| 20260503233040 | 18 | 239 | 1.6 | 6.4 | 0.00 | 0.00 | 0.00 | 41 | 1013.7 |
| 20260503231534 | 18 | 242 | 1.6 | 8.0 | 0.00 | 0.00 | 0.00 | 41 | 1013.6 |
| 20260503230030 | 18 | 239 | 3.2 | 12.9 | 0.00 | 0.00 | 0.00 | 40 | 1013.7 |
| 20260503224529 | 19 | 244 | 1.6 | 12.9 | 0.00 | 0.00 | 0.00 | 40 | 1013.7 |
| 20260503223020 | 19 | 231 | 4.8 | 9.7 | 0.00 | 0.00 | 0.00 | 39 | 1013.8 |
| 20260503221516 | 19 | 211 | 3.2 | 12.9 | 0.00 | 0.00 | 0.00 | 41 | 1013.9 |
| 20260503220019 | 19 | 267 | 4.8 | 11.3 | 0.00 | 0.00 | 0.00 | 40 | 1014.0 |
| 20260503214508 | 19 | 213 | 3.2 | 12.9 | 0.00 | 0.00 | 0.00 | 40 | 1014.1 |
| 20260503213003 | 19 | 261 | 3.2 | 11.3 | 0.00 | 0.00 | 0.00 | 39 | 1014.3 |
| 20260503211604 | 19 | 284 | 4.8 | 12.9 | 0.00 | 0.00 | 0.00 | 39 | 1014.4 |
| 20260503210055 | 19 | 215 | 4.8 | 14.5 | 0.00 | 0.00 | 0.00 | 40 | 1014.5 |
| 20260503204554 | 19 | 265 | 3.2 | 16.1 | 0.00 | 0.00 | 0.00 | 41 | 1014.7 |
| 20260503203046 | 18 | 258 | 3.2 | 19.3 | 0.00 | 0.00 | 0.00 | 35 | 1014.9 |
| 20260503201542 | 19 | 227 | 6.4 | 12.9 | 0.00 | 0.00 | 0.00 | 37 | 1015.1 |
| 20260503200038 | 19 | 223 | 4.8 | 14.5 | 0.00 | 0.00 | 0.00 | 34 | 1015.3 |
| 20260503194533 | 19 | 226 | 8.0 | 16.1 | 0.00 | 0.00 | 0.00 | 34 | 1015.6 |
| 20260503193029 | 18 | 238 | 0.0 | 11.3 | 0.00 | 0.00 | 0.00 | 34 | 1015.8 |
| 20260503191525 | 18 | 273 | 4.8 | 11.3 | 0.00 | 0.00 | 0.00 | 33 | 1016.1 |
| 20260503190024 | 18 | 318 | 0.0 | 8.0 | 0.00 | 0.00 | 0.00 | 36 | 1016.3 |
| 20260503184518 | 17 | 286 | 3.2 | 12.9 | 0.00 | 0.00 | 0.00 | 34 | 1016.6 |
| 20260503183012 | 17 | 266 | 4.8 | 12.9 | 0.00 | 0.00 | 0.00 | 40 | 1016.7 |
| 20260503181507 | 17 | 263 | 8.0 | 20.9 | 0.00 | 0.00 | 0.00 | 38 | 1017.0 |
| 20260503180004 | 16 | 200 | 4.8 | 11.3 | 0.00 | 0.00 | 0.00 | 40 | 1017.2 |
| 20260503174601 | 16 | 271 | 8.0 | 14.5 | 0.00 | 0.00 | 0.00 | 38 | 1017.4 |
| 20260503173056 | 16 | 296 | 3.2 | 11.3 | 0.00 | 0.00 | 0.00 | 41 | 1017.5 |
| 20260503171609 | 16 | 258 | 4.8 | 9.7 | 0.00 | 0.00 | 0.00 | 40 | 1017.8 |
| 20260503081516 | -17 | 0.0 | 0.0 | 0.00 | 0.00 | 0.00 | 1016.2 | ||
| 20260503071609 | -17 | 0.0 | 0.0 | 0.00 | 0.00 | 0.00 | 1015.4 | ||
| 20260503054534 | -17 | 0.0 | 0.0 | 0.00 | 0.00 | 0.00 | 1015.3 | ||
| 20260503053034 | -17 | 0.0 | 0.0 | 0.00 | 0.00 | 0.00 | 1015.3 | ||
| 20260503051523 | -17 | 0.0 | 0.0 | 0.00 | 0.00 | 0.00 | 1015.2 | ||
| 20260503050018 | -17 | 0.0 | 0.0 | 0.00 | 0.00 | 0.00 | 1015.2 | ||
| 20260503044526 | -17 | 0.0 | 0.0 | 0.00 | 0.00 | 0.00 | 1015.0 | ||
| 20260503043014 | -17 | 0.0 | 0.0 | 0.00 | 0.00 | 0.00 | 1014.9 | ||
| 20260503041505 | -17 | 0.0 | 0.0 | 0.00 | 0.00 | 0.00 | 1014.7 | ||
| 20260503040004 | -17 | 0.0 | 0.0 | 0.00 | 0.00 | 0.00 | 1014.5 | ||
| 20260503034557 | -17 | 0.0 | 0.0 | 0.00 | 0.00 | 0.00 | 1014.4 | ||
| 20260503033052 | -17 | 0.0 | 0.0 | 0.00 | 0.00 | 0.00 | 1014.4 | ||
| 20260503031550 | -17 | 0.0 | 0.0 | 0.00 | 0.00 | 0.00 | 1014.2 | ||
| 20260503030045 | -17 | 0.0 | 0.0 | 0.00 | 0.00 | 0.00 | 1014.1 | ||
| 20260503024539 | -17 | 0.0 | 0.0 | 0.00 | 0.00 | 0.00 | 1014.0 | ||
| 20260503023034 | -17 | 0.0 | 0.0 | 0.00 | 0.00 | 0.00 | 1013.9 | ||
| 20260503021530 | -17 | 0.0 | 0.0 | 0.00 | 0.00 | 0.00 | 1013.8 | ||
| 20260503020027 | -17 | 0.0 | 0.0 | 0.00 | 0.00 | 0.00 | 1013.5 | ||
| 20260503014522 | -17 | 0.0 | 0.0 | 0.00 | 0.00 | 0.00 | 1013.2 | ||
| 20260503013020 | -17 | 0.0 | 0.0 | 0.00 | 0.00 | 0.00 | 1013.0 | ||
| 20260503011513 | -17 | 0.0 | 0.0 | 0.00 | 0.00 | 0.00 | 1012.7 | ||
| 20260503010009 | -17 | 0.0 | 0.0 | 0.00 | 0.00 | 0.00 | 1012.4 | ||
| 20260503004505 | -17 | 0.0 | 0.0 | 0.00 | 0.00 | 0.00 | 1012.2 | ||
| 20260503003100 | -17 | 0.0 | 0.0 | 0.00 | 0.00 | 0.00 | 1011.9 | ||
| 20260503001557 | -17 | 0.0 | 0.0 | 0.00 | 0.00 | 0.00 | 1011.7 |